Starlink 31166

operational
NORAD ID: 58789 Int'l Des: 2024-012 Owner: SPXS Country: US Constellation: starlink
LEOCIRCULAR

Über Starlink 31166

Beschreibung wird geladen...

Live-Position

3D-Globus wird geladen...

Nächste Überflüge

Höhenverlauf

Altitude vs Time

uPlot chart will show altitude changes over time

Zweizeiliger Elementsatz

1 58789U 24012C 25304.00201350 .00000271 00000-0 19358-4 0 9991
2 58789 43.0008 177.5011 0001436 276.5084 83.5604 15.27581522101402
Epoch: 31. Okt. 2025 • Age: 18 hours

Aktueller Status

Höhe 488.8 km
Geschwindigkeit 7.62 km/s
Subsatellitenpunkt -25.01°S, 68.84°E
Startdatum 15. Jan. 2024
Alter 1.7 years
Typ internet

Technische Details

Klassifizierung Payload
Masse 730.00 kg
Trockenmasse 700.00 kg
Gesamtmasse 730.00 kg
Länge 0.30 m
Durchmesser 4.10 m
Spannweite 29.00 m
Form Box + pan
Hersteller SPXS
Bus-Typ Starlink V2M
Phasenstatus In Orbit
Besitzer/Staat SPXS/US

Große Konstellationen

Loading constellations...